Kalamazoo, MI

6:16 AM EST on February 26, 2017 (GMT -0500)
Kalamazoo-Battle Creek International

Weather History for KAZO - July, 2012

Change the Weather History Date:

Tuesday, July 17, 2012

  Actual Average Record
Temperature  
Mean Temperature 87 °F 73 °F  
Max Temperature 100 °F 83 °F 100 °F (2012)
Min Temperature 74 °F 62 °F 46 °F (2014)
Degree Days  
Heating Degree Days 0 0  
Month to date heating degree days 0  
Since 1 June heating degree days 48  
Since 1 July heating degree days 0  
Cooling Degree Days 22 8  
Month to date cooling degree days 133  
Year to date cooling degree days 319  
Since 1 June cooling degree days 278  
Growing Degree Days 36 (Base 50)    
Moisture  
Dew Point 67 °F    
Average Humidity 53    
Maximum Humidity 82    
Minimum Humidity 31    
Precipitation  
Precipitation 0.00 in 0.13 in 4.75 in (1982)
Month to date precipitation 0.42 1.97  
Year to date precipitation 17.99  
Sea Level Pressure  
Sea Level Pressure 29.84 in    
Wind  
Wind Speed 8 mph (WSW)    
Max Wind Speed 20 mph    
Max Gust Speed 30 mph    
Visibility 10 miles    
Events      
T = Trace of Precipitation, MM = Missing Value Source: NWS Daily Summary

Daily Weather History Graph

Daily Weather History Graph

Search for Another Location

Airport or City:

Trip Planner

Search our weather history database for the weather conditions in past years. The results will help you decide how hot, cold, wet, or windy it might be!

Date:

Astronomy

Jul. 17, 2012 Rise Set
Actual Time 6:21 AM EDT 9:15 PM EDT
Civil Twilight 5:48 AM EDT 9:48 PM EDT
Nautical Twilight 5:05 AM EDT 10:30 PM EDT
Astronomical Twilight 4:16 AM EDT 11:18 PM EDT
Moon 4:57 AM EDT (7/17) 8:03 PM EDT (7/17)
Length of Visible Light 16h 00m
Length of Day
14h 53m
Waning Crescent, 2% of the Moon is Illuminated
Jul 17
Waning Crescent
Jul 19
New
Jul 26
First Quarter
Aug 1
Full
Aug 9
Last Quarter

Hourly Weather History & Observations

Time (EDT) Temp. Heat Index Dew Point Humidity Pressure Visibility Wind Dir Wind Speed Gust Speed Precip Events Conditions
12:53 AM 79.0 °F - 64.9 °F 62% 29.86 in 10.0 mi SSW 5.8 mph - N/A   Clear
1:53 AM 77.0 °F - 66.0 °F 69% 29.86 in 10.0 mi SW 4.6 mph - N/A   Clear
2:53 AM 77.0 °F - 66.9 °F 71% 29.86 in 10.0 mi SSW 6.9 mph - N/A   Clear
3:53 AM 75.9 °F - 68.0 °F 76% 29.85 in 10.0 mi SSW 5.8 mph - N/A   Clear
4:53 AM 75.0 °F - 68.0 °F 79% 29.86 in 10.0 mi SSW 4.6 mph - N/A   Clear
5:53 AM 75.9 °F - 69.1 °F 79% 29.86 in 10.0 mi SW 5.8 mph - N/A   Clear
6:53 AM 75.0 °F - 69.1 °F 82% 29.86 in 10.0 mi SSW 5.8 mph - N/A   Clear
7:53 AM 79.0 °F - 70.0 °F 74% 29.86 in 10.0 mi SSW 6.9 mph - N/A   Clear
8:53 AM 86.0 °F 90.7 °F 70.0 °F 59% 29.86 in 10.0 mi WSW 6.9 mph - N/A   Clear
9:53 AM 90.0 °F 95.4 °F 70.0 °F 52% 29.85 in 10.0 mi West 12.7 mph 18.4 mph N/A   Clear
10:53 AM 93.0 °F 97.9 °F 69.1 °F 45% 29.85 in 10.0 mi West 12.7 mph 19.6 mph N/A   Clear
11:53 AM 95.0 °F 99.5 °F 68.0 °F 41% 29.84 in 10.0 mi West 9.2 mph 20.7 mph N/A   Scattered Clouds
12:53 PM 96.1 °F 99.3 °F 66.0 °F 37% 29.84 in 10.0 mi WNW 9.2 mph 16.1 mph N/A   Mostly Cloudy
1:53 PM 98.1 °F 101.2 °F 64.9 °F 34% 29.84 in 10.0 mi West 17.3 mph 21.9 mph N/A   Mostly Cloudy
2:53 PM 98.1 °F 101.2 °F 64.9 °F 34% 29.83 in 10.0 mi West 10.4 mph 19.6 mph N/A   Scattered Clouds
3:53 PM 98.1 °F 99.6 °F 63.0 °F 31% 29.81 in 10.0 mi WNW 15.0 mph 23.0 mph N/A   Partly Cloudy
4:53 PM 98.1 °F 100.7 °F 64.0 °F 33% 29.80 in 10.0 mi West 13.8 mph 19.6 mph N/A   Partly Cloudy
5:53 PM 98.1 °F 99.6 °F 63.0 °F 31% 29.78 in 10.0 mi WSW 10.4 mph 19.6 mph N/A   Clear
6:53 PM 97.0 °F 99.3 °F 64.0 °F 34% 29.81 in 10.0 mi WNW 16.1 mph 23.0 mph N/A   Partly Cloudy
7:53 PM 93.9 °F 95.6 °F 64.0 °F 37% 29.81 in 10.0 mi WNW 13.8 mph - N/A   Clear
8:53 PM 91.9 °F 94.1 °F 64.9 °F 41% 29.83 in 10.0 mi WNW 4.6 mph - N/A   Clear
9:53 PM 86.0 °F 88.2 °F 66.0 °F 51% 29.83 in 10.0 mi Calm Calm - N/A   Clear
10:53 PM 87.1 °F 89.2 °F 66.0 °F 49% 29.85 in 10.0 mi NE 3.5 mph - N/A   Partly Cloudy
11:53 PM 81.0 °F 83.3 °F 66.9 °F 62% 29.85 in 10.0 mi Calm Calm - N/A   Clear